Location: NJAA Observatory
(40.6819°N, 74.8979°W)
Time: 16:47:46
(UTC-04:00)

S-56A Canister/Altair - Visible Passes

Search period start: 01 July 2016 00:00
Search period end: 11 July 2016 00:00
Orbit: 639 x 2496 km, 38.9° (Epoch: 27 June)

Date Brightness Start Highest point End Pass type
(mag) Time Alt. Az. Time Alt. Az. Time Alt. Az.
01 Jul 10.0 01:46:02 10° WNW 02:00:01 53° SSW 02:13:35 10° SE visible
01 Jul 10.6 03:54:31 10° W 04:04:36 22° SW 04:13:51 10° S visible
01 Jul 9.7 21:02:48 10° WSW 21:13:35 78° SSE 21:28:20 10° E visible
01 Jul 9.8 23:07:25 10° W 23:20:17 81° S 23:35:34 10° ESE visible
02 Jul 9.9 01:13:01 10° WNW 01:26:51 57° SSW 01:40:55 10° SE visible
02 Jul 10.5 03:20:45 10° W 03:31:47 26° SW 03:42:06 10° S visible
02 Jul 9.8 22:34:47 10° W 22:47:01 82° S 23:02:17 10° ESE visible
03 Jul 9.9 00:40:04 10° WNW 00:53:39 61° SSW 01:05:06 20° SE visible
03 Jul 10.4 02:47:11 10° W 02:58:54 29° SW 03:02:07 27° SSW visible
03 Jul 9.7 22:02:13 10° W 22:13:49 83° S 22:28:58 10° E visible
04 Jul 9.9 00:07:15 10° W 00:20:26 64° SSW 00:30:46 24° SE visible
04 Jul 10.3 02:13:49 10° W 02:25:57 33° SW 02:27:58 32° SSW visible
04 Jul 9.7 21:29:45 10° W 21:40:41 83° S 21:55:33 10° E visible
04 Jul 9.8 23:34:31 10° W 23:47:14 67° SSW 23:57:46 24° SE visible
05 Jul 10.3 01:40:36 10° W 01:52:57 36° SW 01:55:02 35° SSW visible
05 Jul 9.6 20:57:22 10° W 21:07:37 83° S 21:22:06 10° E visible
05 Jul 9.8 23:01:52 10° W 23:14:03 70° SSW 23:25:19 21° ESE visible
06 Jul 10.2 01:07:32 10° W 01:19:55 40° SW 01:22:38 37° SSW visible
06 Jul 11.2 03:18:57 10° WSW 03:19:57 11° WSW 03:19:57 11° WSW visible
06 Jul 9.7 22:29:18 10° W 22:40:53 72° SSW 22:53:12 18° ESE visible
07 Jul 10.2 00:34:36 10° W 00:46:51 43° SW 00:50:31 38° S visible
07 Jul 11.1 02:44:13 10° W 02:47:52 14° WSW 02:47:52 14° WSW visible
07 Jul 9.7 21:56:48 10° W 22:07:47 75° SSW 22:21:17 13° ESE visible
08 Jul 10.1 00:01:47 10° W 00:13:46 46° SSW 00:18:38 37° S visible
08 Jul 11.0 02:10:10 10° W 02:15:59 17° WSW 02:15:59 17° WSW visible
08 Jul 9.6 21:24:24 10° W 21:34:44 77° SSW 21:49:11 10° ESE visible
08 Jul 10.0 23:29:04 10° W 23:40:42 50° SSW 23:46:55 34° SSE visible
09 Jul 10.9 01:36:31 10° W 01:44:16 21° SW 01:44:16 21° SW visible
09 Jul 9.5 20:52:03 10° W 21:01:45 78° S 21:15:46 10° ESE visible
09 Jul 9.9 22:56:27 10° W 23:07:38 53° SSW 23:15:19 30° SSE visible
10 Jul 10.7 01:03:09 10° W 01:12:41 24° SW 01:12:41 24° SW visible
10 Jul 9.9 22:23:55 10° W 22:34:36 56° SSW 22:43:50 24° SE visible
